Location: Gleizolles
(44.4833°N, 6.7667°E)
Time: 00:46:32
(UTC+00:00)

Courier 1B Rocket - Pass Details

Date: 27 June 2024
Orbit: 920 x 1201 km, 28.3° (Epoch: 23 July)

Event Time Altitude Azimuth Distance (km) Brightness Sun altitude
Exits shadow 00:55:03 14° 144° (SE) 2,467 6.8 -19.8°
Drops below altitude 10° 00:56:29 10° 132° (SE) 2,738 7.1 -19.8°
Sets 01:00:17 0° 113° (ESE) 3,745 8.0 -19.5°
